DateTimeUTC,F1_A11,F1_S11,BsB_S11,BsG_S11,BsR_S11,BbsB_S11,BbsG_S11,BbsR_S11,BaB_A11,BaG_A11,BaR_A11,Tu_S11,T_S11,Uu_S11,U_S11,P_S11,T1_A11
2021-09-04T17:00:00Z,00000200,21000000,,,,,,,-000.26,0000.10,-000.04,19.5,26.0,,00.0,0666.1,31.1
2021-09-04T17:01:00Z,00000200,21000000,,,,,,,-000.05,-000.15,0000.09,19.5,26.0,,00.0,0666.1,31.1
2021-09-04T17:02:00Z,00000200,21000000,,,,,,,0000.03,-000.26,-000.32,19.5,26.1,,00.0,0666.1,31.1
2021-09-04T17:03:00Z,00000200,61000000,,,,,,,0000.89,0000.96,0000.36,19.5,26.1,,00.0,0666.1,31.1
2021-09-04T17:04:00Z,00000200,41000000,0004.51,0003.41,0002.34,0000.86,0000.40,0000.71,0000.68,0000.83,0000.98,19.7,25.9,00.1,00.1,0667.0,31.1
2021-09-04T17:05:00Z,00000200,01000000,0004.13,0003.36,0002.45,0001.41,0000.25,0000.32,0001.12,0001.06,0000.99,19.7,25.9,00.2,00.1,0667.1,31.1
2021-09-04T17:06:00Z,00000200,01000000,0004.39,0003.52,0002.54,0001.28,0000.39,0000.36,0001.17,0000.88,0000.82,19.7,25.9,00.2,00.1,0667.1,31.1
2021-09-04T17:07:00Z,00000200,01000000,0004.48,0003.94,0002.22,0001.10,0000.06,0000.55,0001.08,0000.74,0000.48,19.7,25.9,00.2,00.2,0667.1,31.1
2021-09-04T17:08:00Z,00000200,01000000,0004.59,0003.27,0002.11,0001.13,0000.34,0000.33,0000.97,0001.10,0000.82,19.7,25.9,00.3,00.2,0667.1,31.1
2021-09-04T17:09:00Z,00000200,01000000,0004.19,0003.40,0002.32,0000.98,0000.32,0000.46,0000.82,0000.98,0000.50,19.7,25.8,00.2,00.1,0667.1,31.1
2021-09-04T17:10:00Z,00000200,01000000,0004.03,0003.32,0002.26,0000.63,0000.25,0000.63,0000.89,0000.89,0000.96,19.6,25.9,00.3,00.2,0667.1,31.1
2021-09-04T17:11:00Z,00000200,01000000,0003.40,0002.92,0002.34,0000.61,0000.70,0000.22,0001.06,0000.59,0000.47,19.6,25.8,00.2,00.1,0667.1,31.1
2021-09-04T17:12:00Z,00000200,01000000,0003.84,0003.09,0001.99,0000.74,0000.50,0000.52,0000.62,0000.63,0000.66,19.6,25.8,00.3,00.2,0667.1,31.1
2021-09-04T17:13:00Z,00000200,01000000,0003.52,0003.24,0002.47,0000.27,0000.65,0000.72,0000.91,0001.02,0000.56,19.6,25.8,00.2,00.1,0667.0,31.1
2021-09-04T17:14:00Z,00000200,01000000,0003.92,0003.02,0002.04,0001.08,0000.39,0000.25,0001.13,0000.91,0000.89,19.6,25.8,00.3,00.2,0667.0,31.1
2021-09-04T17:15:00Z,00000200,01000000,0003.67,0002.95,0002.26,0000.77,0000.34,0000.68,0000.87,0000.91,0000.42,19.6,25.8,00.3,00.2,0667.0,31.1
2021-09-04T17:16:00Z,00000200,01000000,0003.69,0003.05,0002.07,0000.75,0000.49,0000.18,0000.66,0000.68,0000.74,19.6,25.8,00.2,00.1,0667.0,31.1
2021-09-04T17:17:00Z,00000200,01000000,0003.37,0003.19,0002.08,0000.74,0000.25,0000.61,0001.08,0000.99,0000.55,19.6,25.8,00.2,00.2,0667.0,31.1
2021-09-04T17:18:00Z,00000200,01000000,0003.68,0002.84,0001.86,0000.70,0000.38,0000.39,0000.81,0000.77,0000.56,19.6,25.8,00.3,00.2,0667.0,31.1
2021-09-04T17:19:00Z,00000200,01000000,0003.32,0002.76,0001.96,0000.40,0000.02,0000.34,0000.77,0000.34,0000.69,19.5,25.8,00.2,00.2,0667.0,31.1
2021-09-04T17:20:00Z,00000200,01000000,0002.65,0002.96,0001.73,0000.51,0000.19,0000.18,0000.78,0000.54,0000.67,19.5,25.8,00.2,00.2,0667.1,31.1
2021-09-04T17:21:00Z,00000200,01000000,0002.97,0003.00,0001.61,0000.93,0000.32,-000.12,0001.05,0001.02,0000.45,19.5,25.8,00.3,00.2,0667.1,31.1
2021-09-04T17:22:00Z,00000200,01000000,0002.81,0002.53,0001.59,0000.57,0000.08,0000.48,0000.29,0000.98,0000.74,19.5,25.7,00.3,00.2,0667.1,31.1
2021-09-04T17:23:00Z,00000200,01000000,0002.68,0002.43,0002.16,0000.20,0000.12,0000.11,0000.94,0000.69,0000.45,19.5,25.8,00.3,00.2,0667.1,31.1
2021-09-04T17:24:00Z,00000200,01000000,0002.40,0002.90,0001.75,0000.37,0000.26,0000.42,0001.02,0000.45,0000.80,19.5,25.7,00.3,00.2,0667.1,31.1
2021-09-04T17:25:00Z,00000200,01000000,0002.89,0002.56,0001.77,0001.16,0000.14,0000.51,0000.57,0000.77,0000.52,19.5,25.7,00.3,00.2,0667.1,31.1
2021-09-04T17:26:00Z,00000200,01000000,0002.95,0002.77,0001.86,0001.00,0000.23,0000.42,0000.92,0000.63,0000.37,19.5,25.7,00.2,00.2,0667.0,31.1
2021-09-04T17:27:00Z,00000200,01000000,0002.69,0002.50,0001.70,0000.61,0000.38,0000.25,0000.62,0000.79,0000.73,19.5,25.7,00.3,00.2,0667.1,31.1
2021-09-04T17:28:00Z,00000200,01000000,0003.36,0002.40,0001.70,0000.67,0000.29,0000.26,0000.71,0000.78,0000.12,19.5,25.7,00.2,00.2,0667.1,31.1
2021-09-04T17:29:00Z,00000200,01000000,0002.91,0002.58,0001.75,0000.77,0000.34,0000.25,0000.71,0000.51,0000.55,19.6,25.7,00.3,00.2,0667.1,31.1
2021-09-04T17:30:00Z,00000200,01000000,0002.58,0002.56,0001.78,0000.88,0000.53,0000.29,0000.16,0000.51,0000.72,19.6,25.8,00.3,00.2,0667.1,31.1
2021-09-04T17:31:00Z,00000200,01000000,0002.01,0003.00,0001.59,0000.56,0000.04,0000.32,0001.20,0000.64,0000.34,19.6,25.8,00.3,00.2,0667.1,31.1
2021-09-04T17:32:00Z,00000200,01000000,0002.38,0002.12,0001.84,0000.43,0000.44,0000.46,0000.56,0000.50,0000.84,19.5,25.7,00.2,00.1,0667.1,31.1
2021-09-04T17:33:00Z,00000200,01000000,0003.76,0002.89,0001.61,0000.33,0000.14,0000.43,0000.56,0000.69,0000.15,19.6,25.7,00.2,00.1,0667.1,31.1
2021-09-04T17:34:00Z,00000200,01000000,0003.82,0002.69,0001.86,0000.75,0000.48,0000.41,0000.86,0000.68,0000.68,19.5,25.7,00.2,00.1,0667.1,31.1
2021-09-04T17:35:00Z,00000200,01000000,0003.95,0002.67,0001.67,0000.63,0000.14,0000.32,0000.66,0000.65,0000.27,19.5,25.7,00.2,00.1,0667.0,31.1
2021-09-04T17:36:00Z,00000200,01000000,0003.80,0002.88,0001.36,0000.21,0000.31,0000.26,0000.70,0000.66,0000.93,19.5,25.7,00.2,00.1,0667.0,31.1
2021-09-04T17:37:00Z,00000200,01000000,0003.09,0002.75,0001.73,0000.87,0000.15,0000.30,0000.94,0000.89,0000.48,19.5,25.7,00.2,00.1,0667.0,31.1
2021-09-04T17:38:00Z,00000200,01000000,0003.27,0002.81,0001.75,0000.97,0000.40,0000.38,0000.89,0000.88,0000.68,19.5,25.7,00.3,00.2,0667.0,31.1
2021-09-04T17:39:00Z,00000200,01000000,0003.88,0003.17,0001.51,0001.19,0000.45,0000.32,0000.70,0000.61,0000.56,19.5,25.7,00.3,00.2,0667.0,31.1
2021-09-04T17:40:00Z,00000200,01000000,0003.14,0003.07,0002.17,0001.23,0000.23,0000.54,0000.74,0000.77,0000.47,19.5,25.7,00.3,00.2,0667.1,31.1
2021-09-04T17:41:00Z,00000200,01000000,0003.31,0002.71,0002.02,0001.27,0000.35,0000.47,0000.77,0000.95,0000.41,19.5,25.7,00.2,00.1,0667.1,31.1
2021-09-04T17:42:00Z,00000200,01000000,0003.83,0002.90,0001.51,0000.88,0000.07,0000.37,0001.27,0000.50,0000.67,19.5,25.7,00.3,00.2,0667.1,31.1
2021-09-04T17:43:00Z,00000200,01000000,0003.68,0002.59,0001.67,0000.75,0000.44,0000.06,0000.55,0000.70,0000.80,19.5,25.7,00.3,00.2,0667.1,31.1
2021-09-04T17:44:00Z,00000200,01000000,0003.67,0002.92,0001.60,0000.23,0000.42,0000.18,0000.60,0000.85,0000.58,19.4,25.7,00.3,00.2,0667.1,31.1
2021-09-04T17:45:00Z,00000200,01000000,0003.33,0002.77,0001.85,0000.24,0000.26,0000.16,0001.12,0000.66,0000.54,19.4,25.7,00.3,00.2,0667.1,31.1
2021-09-04T17:46:00Z,00000200,01000000,0003.68,0002.55,0002.11,0001.08,0000.21,0000.58,0000.49,0000.74,0000.54,19.4,25.7,00.3,00.2,0667.1,31.1
2021-09-04T17:47:00Z,00000200,01000000,0003.45,0002.43,0001.59,0000.89,0000.12,0000.60,0000.62,0000.86,0000.72,19.4,25.7,00.3,00.2,0667.1,31.1
2021-09-04T17:48:00Z,00000200,01000000,0002.77,0002.94,0001.52,0000.75,0000.54,0000.57,0000.87,0000.23,0000.29,19.4,25.7,00.3,00.2,0667.1,31.1
2021-09-04T17:49:00Z,00000200,01000000,0003.64,0002.97,0002.15,0000.93,0000.20,0000.49,0001.05,0000.99,0000.72,19.4,25.6,00.3,00.2,0667.1,31.1
2021-09-04T17:50:00Z,00000200,01000000,0003.63,0003.22,0001.72,0000.50,0000.19,0000.41,0001.04,0001.07,0000.73,19.4,25.6,00.4,00.2,0667.1,31.1
2021-09-04T17:51:00Z,00000200,01000000,0002.96,0002.90,0002.14,0000.86,0000.24,0000.58,0000.76,0001.27,0000.66,19.4,25.6,00.2,00.2,0667.1,31.1
2021-09-04T17:52:00Z,00000200,01000000,0003.33,0003.03,0002.00,0001.39,0000.12,0000.27,0000.82,0000.24,0000.39,19.4,25.6,00.3,00.2,0667.1,31.1
2021-09-04T17:53:00Z,00000200,01000000,0004.28,0003.51,0001.83,0001.37,0000.25,0000.47,0000.73,0000.65,0000.76,19.4,25.6,00.3,00.2,0667.1,31.1
2021-09-04T17:54:00Z,00000200,01000000,0002.90,0002.79,0002.02,0000.92,0000.54,0000.16,0000.55,0000.66,0000.47,19.4,25.6,00.3,00.2,0667.1,31.1
2021-09-04T17:55:00Z,00000200,01000000,0003.16,0002.94,0001.61,0000.60,0000.64,0000.41,0001.09,0000.75,0000.22,19.3,25.6,00.3,00.2,0667.1,31.1
2021-09-04T17:56:00Z,00000200,01000000,0003.29,0002.85,0001.98,0000.92,0000.69,0000.41,0000.80,0000.81,0000.77,19.3,25.6,00.2,00.2,0667.1,31.1
2021-09-04T17:57:00Z,00000200,41000000,,,,,,,0000.25,0000.29,0000.64,19.3,25.7,00.6,00.4,0667.0,31.1
2021-09-04T17:58:00Z,00000200,61000000,,,,,,,0000.16,0000.29,-000.17,19.1,25.7,00.0,00.0,0666.1,31.1
2021-09-04T17:59:00Z,00000200,21000000,,,,,,,0000.13,-000.16,0000.22,19.2,25.8,,00.0,0666.1,31.1
